Regional Weather Roundup
Issued by NWS

Home | Current Version | Previous Version | Text Only | Print | Product List | Glossary Off
Versions: 1 2 3 4 5 6 7 8 9 10 11 12 13 14 15 16 17 18 19 20 21 22 23 24 25 26 27 28 29 30 31 32 33 34 35 36 37 38 39 40 41 42 43 44 45 46 47 48 49 50

000
ASUS43 KDMX 300006
RWRIA

WEATHER ROUNDUP FOR IOWA
NATIONAL WEATHER SERVICE DES MOINES IA
700 PM CDT WED MAR 29 2017

NOTE: "FAIR" INDICATES FEW OR NO CLOUDS BELOW 12,000 FEET WITH NO
SIGNIFICANT WEATHER AND/OR OBSTRUCTIONS TO VISIBILITY.

* - THESE STATIONS ARE NOT NWS STATIONS...THUS NOT UNDER NWS
QUALITY CONTROL.  THEY ALSO DO NOT REPORT WEATHER SUCH
AS PRECIPITATION OR FOG.

IAZ001>003-012>014-020>022-031>034-043>046-300100-
   NORTHWEST IOWA

CITY           SKY/WX    TMP DP  RH WIND       PRES   REMARKS
CARROLL *      CLOUDY    41  41 100 NE22G31   29.93S FOG
CHEROKEE *     LGT RAIN  39  39  97 E21G30    29.99F WCI  29
DENISON *      LGT RAIN  41  39  93 E23G32    29.92S
LE MARS *      MIX PCPN  39  37  93 E20G28    29.98F WCI  30
ORANGE CITY *  LGT RAIN  39  37  93 E21G30    29.98F WCI  29
SHELDON *      CLOUDY    39  37  93 E26G33    29.98S WCI  28
SIOUX CITY     LGT RAIN  41  39  93 E23G36    29.93F
6HR MIN TEMP:  41; 6HR MAX TEMP:  47; 6HR PCP:  0.28;

SPENCER        LGT RAIN  40  37  89 E24G33    30.02S WCI  29
6HR MIN TEMP:  39; 6HR MAX TEMP:  44; 6HR PCP:  0.38;

STORM LAKE *   CLOUDY    39  37  93 E28G36    29.98S FOG     WCI  28
$$

IAZ055>058-069>071-079>083-090>094-300100-
   SOUTHWEST IOWA

CITY           SKY/WX    TMP DP  RH WIND       PRES   REMARKS
ATLANTIC *     LGT RAIN  43  43 100 NE18G26   29.83F
AUDUBON *      LGT RAIN  39  37  93 NE20G29   29.88F WCI  30
CLARINDA *     CLOUDY    48  48 100 NE14      29.78S FOG
COUNCIL BLFS * CLOUDY    41  41 100 NE24G33   29.82S
CRESTON *      CLOUDY    45  45 100 E20G28    29.80F FOG
HARLAN  *      LGT RAIN  41  41 100 NE24G32   29.88F
LAMONI         CLOUDY    49  48  97 E17G25    29.77F FOG
6HR MIN TEMP:  44; 6HR MAX TEMP:  49; 6HR PCP:  0.14;

RED OAK *      LGT RAIN  45  45 100 NE14G22   29.81R
SHENANDOAH *   CLOUDY    45  45 100 NE17      29.79R FOG
$$

IAZ047>049-059>061-072>074-084-300100-
   CENTRAL IOWA

CITY           SKY/WX    TMP DP  RH WIND       PRES   REMARKS
AMES           CLOUDY    42  42 100 E17G29    29.93S FOG
6HR MIN TEMP:  41; 6HR MAX TEMP:  43; 6HR PCP:  0.80;

BOONE *        FOG       41  41 100 E28G35    29.92S VSB 3/4
CHARITON *     CLOUDY    46  46 100 E15       29.84S FOG
DES MOINES     LGT RAIN  45  42  89 E16G29    29.88F FOG
6HR MIN TEMP:  44; 6HR MAX TEMP:  46; 6HR PCP:  0.44;

GRINNELL*      RAIN      42  41  95 E22G28    29.94S
MARSHALLTOWN   LGT RAIN  42  40  92 E24G33    29.96R FOG
6HR MIN TEMP:  42; 6HR MAX TEMP:  43; 6HR PCP:  0.30;

NEWTON *       FOG       43  41  93 E22G30    29.91S VSB 1
PELLA *        LGT RAIN  44  43  96 E13G22    29.91F
PERRY *        LGT RAIN  42  41  95 NE16G24   29.91S
$$

IAZ004>006-015-016-023>025-035-036-300100-
   NORTH CENTRAL IOWA

CITY           SKY/WX    TMP DP  RH WIND       PRES   REMARKS
ALGONA *       CLOUDY    39  39 100 E24       30.03S FOG     WCI  28
CLARION *      CLOUDY    39  39 100 E30G36    30.00S FOG     WCI  27
ESTHERVILLE    LGT RAIN  39  38  96 E20       30.04F WCI  29
6HR MIN TEMP:  38; 6HR MAX TEMP:  45; 6HR PCP:  0.42;

FORT DODGE *   CLOUDY    39  36  87 NE21G30   30.01R WCI  29
MASON CITY     LGT RAIN  38  36  92 E23G30    30.07S FOG     WCI  27
6HR MIN TEMP:  38; 6HR MAX TEMP:  44; 6HR PCP:  0.39;

FOREST CITY *  DRIZZLE   37  36  93 E18G26    30.06S WCI  27
WEBSTER CITY * LGT RAIN  41  39  93 E23G33    29.96S
IOWA FALLS *   LGT RAIN  41  39  93 E24G31    29.99F
$$

IAZ007>011-017>019-026>030-037>042-050>054-066-300100-
   NORTHEAST IOWA

CITY           SKY/WX    TMP DP  RH WIND       PRES   REMARKS
CEDAR RAPIDS   LGT RAIN  42  42 100 E25G33    29.95R
6HR MIN TEMP:  42; 6HR MAX TEMP:  44; 6HR PCP:  0.32;

CHARLES CITY * LGT RAIN  39  39 100 E22G30    30.06F WCI  29
CLINTON *      LGT RAIN  43  40  89 E24G30    30.03R
DECORAH *      LGT RAIN  41  39  93 NE13G18   30.10R
DUBUQUE        LGT RAIN  41  36  82 E20G25    30.04F
6HR MIN TEMP:  41; 6HR MAX TEMP:  46; 6HR PCP:  0.15;

MONTICELLO *   LGT RAIN  43  39  87 E17G28    30.01S
OELWEIN *      CLOUDY    41  41 100 NE23G30   30.03R FOG
WATERLOO       LGT RAIN  41  38  89 E21G28    30.02S FOG
6HR MIN TEMP:  41; 6HR MAX TEMP:  44; 6HR PCP:  0.19;

$$

IAZ064-065-067-068-078-300100-
   EAST CENTRAL IOWA

CITY           SKY/WX    TMP DP  RH WIND       PRES   REMARKS
DAVENPORT      CLOUDY    44  40  85 E21G28    29.99R
6HR MIN TEMP:  44; 6HR MAX TEMP:  48; 6HR PCP:  0.22;

IOWA CITY      CLOUDY    46  41  82 E17G28    29.97S
6HR MIN TEMP:  46; 6HR MAX TEMP:  48; 6HR PCP:  0.30;

MUSCATINE *    CLOUDY    46  43  87 E12G18    29.97R
QUAD CITIES    CLOUDY    46  41  82 E21       29.98R
6HR MIN TEMP:  46; 6HR MAX TEMP:  49; 6HR PCP:  0.11;

$$

IAZ062-063-075>077-085>089-095>099-300100-
   SOUTHEAST IOWA

CITY           SKY/WX    TMP DP  RH WIND       PRES   REMARKS
BURLINGTON     CLOUDY    50  44  80 E12       29.92S
6HR MIN TEMP:  48; 6HR MAX TEMP:  50; 6HR PCP:  0.12;

FAIRFIELD *    CLOUDY    46  43  87 E17       29.90S
FORT MADISON * CLOUDY    50  48  93 E13       29.91F
KEOKUK *       CLOUDY    50  46  87 E15G22    29.87F
OSKALOOSA *    CLOUDY    45  43  93 E20G26    29.90S FOG
CENTERVILLE *  CLOUDY    46  46 100 E16G23    29.84F
OTTUMWA        CLOUDY    47  45  93 E17G30    29.88F
6HR MIN TEMP:  47; 6HR MAX TEMP:  48; 6HR PCP:  0.33;

WASHINGTON *   CLOUDY    46  45  93 E21       29.94S
$$

ABBREVIATIONS USED IN REMARKS
   TC - TEMPERATURES IN CELSIUS
  WCI - WIND CHILL INDEX
   HX - HEAT INDEX
  VSB - VISIBILITY
$$





USA.gov is the U.S. government's official web portal to all federal, state and local government web resources and services.